Wind_Speed
12 10 13 14 13 14 13 12 13 12 8 5 5 5 5 5 6 5 8 9 13 16 13 10 11 11 12 14 14 12 8 6 11 15 16 17 16 14 11 11 12 10 9 9 8 8 8 11 15 17 18 17 17 17 13 8 7 10 14 16 14 13 11 9 8 8 6 4 3 2 4 7 10 11 11 12 11 9 8 7 6 8 10 12 13 13
13 13 14 13 11 12 13 12 11 11 9 7 8 7 5 5 7 6 8 8 11 14 9 8 11 12 13 13 13 11 8 6 12 16 15 17 17 14 10 11 13 12 11 9 7 9 9 10 12 14 16 17 16 15 11 7 6 10 13 14 14 13 12 10 9 8 7 5 3 1 3 6 8 10 11 12 12 11 10 8 7 7 8 10 11 13
13 16 13 9 7 9 11 12 11 10 9 8 9 8 5 4 7 7 6 6 9 11 7 5 10 14 14 14 13 10 6 5 10 13 13 15 18 14 10 12 15 13 11 8 7 9 10 9 10 11 12 15 15 14 12 8 7 10 12 13 14 14 12 10 9 8 7 5 4 2 2 4 6 7 9 10 11 12 11 9 8 7 7 8 10 11
12 11 9 7 6 6 9 11 11 11 10 9 8 7 4 4 8 9 7 5 7 9 6 1 7 12 13 13 14 11 7 7 10 13 13 14 17 15 11 13 17 14 10 7 7 10 10 9 10 11 11 11 13 13 10 8 7 8 11 14 15 13 11 10 9 9 7 6 5 4 4 5 5 6 7 8 9 11 12 11 9 8 7 8 9 10
11 7 6 7 4 4 7 8 10 11 9 8 8 6 3 4 7 10 8 6 5 6 4 5 7 10 11 10 12 12 10 9 10 13 15 15 17 15 13 16 18 14 11 9 8 10 9 7 9 11 12 11 11 10 8 6 6 8 11 14 15 12 10 9 10 10 8 8 7 6 6 6 7 8 9 8 8 10 11 11 10 9 8 9 9 10
11 7 3 2 1 3 6 8 9 10 9 9 8 5 1 3 5 6 5 5 2 1 2 5 4 5 9 8 9 11 12 12 10 12 16 18 17 16 14 18 20 16 13 12 11 10 8 8 10 11 12 11 10 9 8 7 7 9 12 14 15 12 9 9 11 11 10 9 9 8 8 8 9 11 12 11 8 8 10 11 10 9 8 9 10 10
11 7 3 1 5 5 6 9 10 10 11 10 7 4 3 1 4 3 3 4 2 4 4 3 2 4 7 8 9 10 11 12 11 11 15 19 20 17 16 20 21 18 15 15 13 10 9 11 12 11 10 10 10 9 9 10 10 10 12 13 14 12 10 10 12 13 12 11 10 10 10 10 10 12 14 13 10 8 10 11 11 10 8 8 9 9
10 6 3 3 6 4 7 11 11 13 13 10 6 4 3 2 3 4 2 3 2 5 3 1 5 7 7 9 9 8 8 8 10 11 13 19 22 20 19 22 23 19 17 16 14 11 12 13 13 10 9 9 9 9 9 9 10 10 10 12 13 12 11 11 12 13 14 13 13 13 13 13 12 14 14 14 12 10 10 12 12 11 10 9 8 8
7 5 4 5 5 1 8 11 10 12 12 9 7 5 5 5 5 6 4 2 2 5 3 3 7 6 6 10 9 7 8 6 7 9 11 17 22 23 23 23 24 21 18 17 14 12 13 14 13 12 11 11 11 10 9 9 9 10 10 11 12 13 12 12 12 13 14 15 15 15 15 15 14 14 14 14 13 10 10 12 12 11 10 9 8 8
7 7 7 7 3 0 6 9 9 11 11 9 8 7 7 7 7 7 5 3 2 4 3 3 7 4 4 10 11 7 8 7 6 7 7 11 19 24 25 25 25 23 20 19 17 15 15 15 15 15 15 14 13 11 11 12 12 11 11 11 12 13 12 12 12 12 13 15 16 16 16 15 15 14 14 14 14 12 10 11 11 10 10 9 8 8
11 10 10 8 4 3 3 7 9 11 11 9 8 7 6 6 6 6 6 5 1 2 4 4 7 5 2 7 11 9 9 9 8 7 5 7 13 21 25 26 26 25 22 21 19 18 17 17 18 17 17 15 14 14 14 14 13 12 11 12 11 11 12 12 12 12 13 15 16 18 18 17 16 15 15 15 16 14 11 11 11 10 9 9 8 7
13 12 11 9 7 6 5 8 10 11 12 10 6 7 6 4 5 4 4 5 2 1 5 7 8 7 5 6 10 10 10 11 8 6 6 7 10 15 22 27 28 26 24 22 22 21 20 20 20 19 18 17 15 15 14 14 13 12 10 10 10 11 12 12 12 13 15 16 17 19 20 20 18 17 16 16 16 15 12 11 11 9 9 8 7 6
13 11 11 10 9 8 7 9 12 12 13 11 9 9 6 2 3 2 1 3 3 2 5 9 8 7 8 8 9 8 7 7 7 6 6 7 8 11 17 25 28 27 25 25 24 23 22 21 20 19 17 16 15 14 14 13 12 10 9 9 10 11 13 14 15 16 17 18 20 21 21 22 20 17 16 16 16 15 13 12 10 8 8 8 6 5
12 10 11 11 10 9 10 11 13 14 15 14 13 12 8 4 3 2 2 1 1 3 6 9 8 5 7 8 11 11 9 7 7 7 7 7 8 10 14 22 27 28 27 26 25 25 24 22 21 19 16 14 14 14 13 13 12 10 10 11 12 13 15 16 17 18 19 22 24 25 25 23 18 14 13 14 16 15 12 11 10 8 7 7 5 4
7 6 9 12 10 9 11 12 12 13 14 14 14 14 12 7 5 3 3 2 3 4 6 9 5 3 5 7 9 12 12 11 10 11 11 10 11 11 14 20 27 29 28 29 29 28 26 24 24 22 16 14 14 14 13 13 12 12 11 13 14 16 18 20 21 21 23 26 27 28 28 25 19 14 12 12 14 14 12 11 10 7 6 5 4 2
7 7 7 12 13 11 11 13 15 15 13 12 14 15 14 11 8 5 4 5 6 5 4 6 4 4 8 9 9 9 10 9 8 11 13 12 12 13 16 21 27 30 29 30 30 30 28 28 27 21 15 13 14 14 13 13 12 13 13 15 17 19 21 22 23 25 27 29 29 29 29 26 21 16 13 12 13 14 14 12 9 7 4 4 3 1
8 8 7 12 15 14 12 13 17 19 14 11 15 18 15 11 10 7 5 5 7 6 4 5 4 5 7 8 10 9 7 5 5 8 10 11 11 14 17 19 24 28 28 29 31 32 31 26 18 12 9 10 13 13 13 13 14 15 16 18 21 22 23 24 28 31 33 32 29 27 27 24 20 18 16 14 13 15 16 12 7 4 3 3 2 2
9 8 9 12 13 13 13 13 16 20 17 12 14 17 15 11 10 9 5 3 3 3 4 4 2 5 6 4 8 10 8 6 6 6 8 8 8 12 15 17 21 26 28 29 29 25 19 11 5 5 5 7 11 12 13 15 16 17 19 21 23 25 26 31 36 36 34 31 26 24 23 20 18 20 21 18 16 18 17 11 6 3 1 1 1 3
13 10 9 11 11 10 12 13 12 15 17 14 11 14 13 8 9 11 7 3 3 2 2 3 1 5 9 6 7 11 10 8 8 5 5 5 6 8 13 15 17 21 22 17 13 8 6 4 5 9 9 10 12 13 14 16 17 18 20 22 24 25 27 32 34 29 26 24 20 19 19 17 16 19 24 21 19 21 18 11 8 5 3 2 3 6
17 13 9 10 12 9 11 14 12 11 15 14 11 13 14 8 8 13 9 6 7 4 1 2 1 4 9 9 8 10 10 10 9 6 4 4 6 7 9 9 11 15 14 6 2 4 5 6 8 10 12 12 13 14 14 15 16 17 18 20 21 23 23 24 24 20 17 15 13 14 15 15 13 16 22 23 22 24 18 13 11 8 7 5 5 6
19 18 12 9 11 11 10 12 12 12 14 14 12 14 16 11 8 11 8 6 7 5 4 3 1 3 9 9 8 8 8 9 9 8 5 5 7 9 6 4 7 10 9 4 3 6 6 7 10 12 12 13 13 13 13 12 12 13 14 15 16 17 17 16 16 16 14 11 10 12 13 12 11 13 20 23 24 22 15 14 14 12 11 9 8 8
19 19 15 10 10 11 10 10 12 12 11 11 12 14 14 12 10 10 5 5 6 5 6 5 2 5 11 10 8 6 6 9 9 8 8 7 10 12 9 7 9 10 8 6 6 8 8 9 11 12 13 13 13 12 11 10 10 11 12 13 14 14 14 13 13 13 13 11 11 12 11 11 11 14 19 22 22 18 13 16 17 15 15 13 12 11
17 16 14 9 8 11 10 9 11 10 9 9 8 9 11 12 13 10 5 8 9 6 7 7 4 6 12 11 9 8 7 9 10 10 11 11 13 14 12 11 12 12 11 9 8 9 10 12 11 11 12 12 11 10 10 10 10 11 11 12 13 13 12 12 12 12 12 11 11 11 11 11 11 12 15 18 20 18 16 18 19 18 18 17 15 15
15 13 11 11 11 13 12 10 10 9 10 11 7 7 10 11 14 12 8 12 14 10 9 7 3 7 14 13 10 9 8 9 11 12 13 13 13 13 13 12 12 10 9 10 11 10 10 11 12 12 12 11 10 10 9 9 9 10 11 12 13 13 12 12 12 12 12 12 12 12 12 12 11 10 10 13 18 20 19 21 22 22 21 20 19 19
12 11 13 13 9 7 9 7 8 9 9 10 9 9 9 9 11 11 9 13 15 13 13 8 4 9 16 15 12 10 9 10 12 15 16 14 14 15 14 13 12 10 10 12 12 11 12 13 13 13 14 13 12 11 9 8 9 10 11 13 14 15 15 14 13 13 13 13 13 13 14 14 12 10 8 11 17 21 22 23 25 25 25 23 23 22
10 10 14 13 6 6 7 5 7 11 10 10 10 10 9 8 8 8 10 13 12 14 16 10 7 14 17 16 14 12 11 12 14 17 19 18 18 18 16 14 14 13 13 14 14 14 15 14 13 13 13 13 12 11 10 10 10 12 13 14 16 17 17 16 15 15 14 15 15 16 16 16 14 11 9 10 16 22 24 26 26 26 27 28 27 26
11 11 12 11 10 12 12 10 12 14 13 12 11 11 9 7 6 6 8 11 12 15 15 9 10 18 18 16 16 16 15 14 15 19 21 21 21 20 18 17 16 15 15 16 16 15 15 14 13 12 11 11 11 12 12 13 14 15 16 17 18 19 19 19 18 17 17 17 18 18 18 17 15 12 11 12 16 21 25 27 28 29 30 32 33 31
11 10 10 10 8 6 5 7 11 13 11 9 9 9 9 7 5 4 4 6 10 13 11 9 14 20 20 18 17 18 18 17 17 20 22 23 21 20 19 19 18 17 17 17 15 14 13 13 12 12 12 12 13 14 16 18 19 20 20 20 20 20 19 19 20 20 19 19 19 20 19 17 15 14 14 15 16 21 25 27 29 31 33 36 37 35
9 6 7 9 8 5 2 3 5 9 7 5 5 4 4 5 3 2 2 3 7 9 9 13 20 22 21 20 18 18 19 19 19 22 22 22 20 19 19 18 17 17 16 14 13 13 12 12 12 13 13 14 16 18 19 20 21 22 22 21 20 19 19 19 19 20 20 20 20 20 19 18 17 17 18 19 20 22 25 28 30 31 32 36 40 39
13 8 7 10 9 7 7 6 6 8 8 4 0 5 7 7 5 3 4 5 7 7 8 13 22 23 21 21 19 18 19 19 20 22 21 21 20 19 18 17 17 16 15 14 14 13 13 14 14 14 15 16 18 20 20 20 20 20 20 20 20 19 18 18 18 19 19 20 20 20 20 19 19 19 20 21 22 24 26 28 30 31 32 34 37 39
17 13 12 14 11 9 11 11 10 9 6 6 10 12 11 9 8 8 8 8 10 9 8 13 21 21 19 19 19 19 19 19 21 21 21 21 20 20 19 18 18 17 16 16 15 15 15 15 16 16 17 18 20 21 22 22 23 23 22 21 21 20 19 18 18 18 19 19 20 21 21 20 21 21 20 21 22 23 25 26 28 31 32 32 33 35
15 16 17 17 13 12 13 13 13 13 11 12 14 13 11 9 8 10 10 10 12 12 12 16 21 21 20 19 19 19 18 19 20 21 22 22 22 21 20 20 19 18 18 18 18 17 17 18 18 18 19 20 21 23 24 25 26 25 24 22 20 20 20 20 19 18 18 19 20 21 22 22 22 22 21 20 20 21 21 22 24 26 26 25 26 28
11 14 17 17 15 14 13 10 9 8 7 9 14 16 14 12 11 11 11 11 12 13 15 19 22 22 22 21 21 20 19 19 19 20 20 21 21 21 20 20 20 20 20 20 20 20 20 21 21 21 21 21 22 24 25 26 27 25 24 23 22 22 21 21 20 19 19 19 19 20 21 21 21 21 20 20 20 20 20 20 20 21 20 19 19 19
9 9 14 16 14 15 16 14 14 11 5 7 14 16 15 14 14 13 13 13 14 15 17 19 21 22 22 21 20 19 19 18 18 18 18 18 18 18 18 18 19 19 20 21 22 22 22 23 23 23 23 23 23 25 26 27 27 26 26 26 26 26 26 24 23 21 20 20 19 19 20 20 20 21 21 21 21 21 20 20 20 19 19 18 16 15
9 9 13 15 14 18 22 19 11 4 5 8 14 16 15 14 13 13 14 16 17 18 19 20 21 22 21 20 19 17 17 16 16 16 15 15 15 15 15 16 16 17 19 20 21 22 22 23 24 24 24 24 25 25 26 26 26 27 28 29 29 30 30 29 27 25 23 22 21 21 21 21 22 22 23 23 23 22 21 21 21 20 19 17 16 15
11 11 13 14 13 15 19 15 6 4 7 11 14 15 14 14 12 11 14 18 20 20 21 21 22 22 21 20 18 17 16 16 15 15 14 14 14 14 14 15 15 16 17 18 19 20 20 21 21 23 24 25 25 25 26 26 27 28 29 30 31 32 32 32 32 30 27 25 24 23 23 24 24 25 25 24 24 23 23 23 22 21 19 18 17 17
12 13 14 14 12 12 13 11 7 5 7 13 16 16 16 16 15 13 14 17 21 21 21 21 21 21 21 19 19 18 17 16 16 15 15 15 15 15 16 16 17 17 18 19 20 20 21 21 21 22 23 24 24 24 26 27 28 28 28 30 32 32 32 32 32 32 29 27 26 25 25 25 26 26 27 26 25 24 24 24 23 21 19 18 18 18
13 14 14 13 12 13 12 9 5 2 5 14 20 20 20 19 17 16 14 15 20 22 21 20 20 20 20 19 18 17 17 16 16 16 16 16 16 16 17 18 19 20 21 22 23 24 24 24 24 24 24 24 24 25 26 27 27 27 26 28 29 28 28 28 29 30 28 26 27 27 26 26 27 26 26 26 25 25 25 25 23 21 20 19 20 20
16 16 17 15 13 16 15 9 6 5 7 15 22 23 22 20 18 16 12 13 20 22 20 20 19 18 18 18 17 17 17 17 17 17 17 17 17 18 19 19 20 21 22 23 24 25 26 27 27 27 26 26 26 26 26 26 26 26 26 26 27 27 28 28 28 29 29 29 29 28 27 27 28 27 26 25 25 25 24 24 23 23 22 22 21 21
18 18 19 18 16 17 17 12 9 8 10 17 24 24 22 20 19 15 9 12 20 22 21 20 19 17 18 17 17 18 18 18 19 18 18 18 19 20 21 21 21 22 23 24 25 26 27 27 27 27 27 27 26 27 27 27 26 26 26 26 27 27 29 30 30 29 29 28 29 29 28 28 28 27 25 24 24 24 24 24 24 24 24 24 23 23
11 13 15 17 16 16 17 13 8 7 11 18 23 24 22 19 18 16 12 13 19 22 22 21 20 19 19 18 18 18 18 19 20 20 20 21 21 22 23 24 24 25 26 27 28 29 30 30 30 29 29 28 28 29 29 30 29 29 28 28 28 28 30 31 30 30 29 28 27 28 29 29 29 28 28 28 27 26 26 26 26 26 26 25 24 24
4 5 7 10 11 12 14 12 7 6 10 16 20 22 22 18 16 18 18 15 16 20 22 22 21 21 20 19 18 18 18 20 21 22 23 24 25 26 26 28 29 29 30 31 32 33 33 33 33 33 32 32 32 32 33 34 34 34 34 33 31 30 30 31 32 32 31 29 29 28 29 30 30 29 29 31 32 31 29 28 27 27 27 27 27 27
2 2 3 5 6 7 10 9 6 5 10 15 18 20 20 18 16 17 17 14 15 18 20 20 20 20 19 18 18 18 18 20 21 23 24 25 26 28 29 30 31 32 33 33 34 35 36 37 36 36 36 36 36 36 37 38 38 38 38 38 36 35 34 34 34 34 34 32 32 32 31 30 30 29 29 30 33 34 32 30 30 30 30 30 30 30
1 2 3 3 4 5 6 7 7 7 11 15 17 18 19 18 17 15 14 14 14 15 15 16 16 16 16 17 17 18 19 20 22 23 25 26 28 29 31 33 34 35 37 38 39 40 41 42 43 43 43 43 43 44 44 44 45 44 43 41 40 39 39 39 38 37 36 35 35 35 35 34 33 32 32 32 35 36 36 35 35 35 33 31 30 32
1 2 2 2 2 4 4 6 7 9 11 13 14 14 15 14 13 12 11 12 12 11 11 12 12 13 14 15 17 19 21 23 25 27 29 31 32 34 36 37 39 40 41 42 43 44 45 45 46 47 47 46 47 48 49 49 50 50 49 47 45 44 44 44 43 42 40 39 38 37 37 37 36 35 35 35 37 38 37 36 36 34 31 28 28 31
3 3 2 1 2 3 3 5 7 7 8 9 10 9 9 8 8 7 7 8 9 10 11 13 14 16 17 19 21 23 25 27 29 31 33 34 35 36 37 38 39 40 41 42 42 43 43 44 44 45 45 44 44 45 46 47 48 49 49 48 47 47 47 47 47 46 44 42 41 40 39 40 39 39 37 37 37 37 35 34 35 34 32 29 28 29
3 2 2 2 3 3 4 6 6 5 5 5 5 5 5 5 6 7 9 10 12 14 15 17 18 20 21 23 24 26 28 30 31 32 33 34 34 35 36 37 37 38 39 40 41 41 42 42 43 43 44 43 43 43 44 44 45 46 46 46 45 45 46 46 48 48 48 46 45 43 42 42 42 42 41 40 39 38 36 35 35 35 33 31 30 31
2 1 1 2 2 2 4 5 5 3 3 2 3 4 5 7 8 9 11 13 15 16 18 19 20 21 23 25 26 27 28 29 30 31 32 33 33 34 34 35 36 37 37 38 39 40 41 42 42 43 43 43 43 42 43 43 43 44 45 45 46 46 45 45 45 47 48 48 48 47 46 45 44 44 44 43 42 41 40 39 38 37 35 34 32 31
2 2 1 2 1 2 3 4 3 3 3 3 4 5 6 8 9 11 13 14 16 17 18 19 20 22 23 24 26 27 28 28 30 31 31 31 32 33 34 35 36 37 38 38 39 40 41 42 43 43 44 44 44 44 44 43 42 43 44 45 46 47 47 46 46 45 46 47 47 48 48 48 48 45 43 43 44 44 44 43 41 39 37 35 33 33
4 4 3 3 3 2 2 3 3 3 4 4 5 7 8 9 11 12 13 14 16 17 18 19 20 22 23 24 25 26 26 27 28 29 30 31 31 32 34 35 36 37 38 38 39 40 41 42 43 43 43 44 44 45 45 44 43 43 44 45 45 46 47 47 46 46 46 46 45 45 47 49 51 50 47 45 44 44 46 46 43 40 37 35 33 33
5 5 4 5 4 4 3 3 3 5 6 6 8 9 10 11 12 13 13 15 16 17 18 19 21 22 22 23 24 24 25 26 26 28 29 29 30 31 33 34 34 35 36 37 39 40 40 40 41 41 42 43 44 45 45 45 45 44 44 45 45 46 47 47 47 47 47 47 46 45 44 45 48 50 51 50 47 45 45 46 44 41 39 38 36 36
Wind_Direction
204 213 216 219 220 221 227 234 229 219 220 237 250 250 252 275 272 275 314 325 322 316 296 257 230 210 207 218 226 229 231 212 191 184 178 183 190 195 190 179 179 175 172 168 155 157 166 179 187 191 195 195 197 197 199 205 206 202 195 188 193 202 200 194 189 188 185 178 155 98 57 44 37 32 29 24 17 9 357 335 300 271 258 254 254 256
210 222 224 227 230 229 231 229 223 220 227 244 255 255 256 289 295 302 331 333 323 324 308 251 223 206 205 216 224 225 224 206 189 179 175 182 189 198 199 186 185 184 182 176 161 164 167 173 185 193 198 202 207 210 212 221 212 197 187 184 191 197 202 203 197 200 202 199 201 139 50 38 31 25 24 22 15 8 1 349 326 295 272 260 257 256
213 227 226 220 215 213 216 211 207 212 222 237 249 251 255 310 318 312 341 353 335 336 330 256 219 202 202 214 221 221 214 208 198 181 174 186 193 203 213 200 196 195 189 181 168 167 163 167 178 186 196 204 211 214 218 229 218 197 190 189 193 196 204 209 208 215 219 222 242 279 360 18 20 15 13 18 16 7 360 352 338 316 286 267 258 255
215 220 203 189 191 195 203 205 208 216 223 232 237 239 251 322 324 309 321 342 335 344 360 146 188 187 193 207 214 221 222 208 205 196 189 192 199 213 230 213 204 200 192 185 171 166 165 171 176 175 181 195 207 215 222 233 224 202 195 197 200 202 209 217 221 228 234 243 263 289 317 339 354 357 356 3 10 6 358 353 342 326 305 284 268 260
205 178 155 161 177 200 208 217 221 224 223 221 223 229 258 316 306 295 309 327 326 347 27 126 142 159 175 198 208 216 222 208 201 204 200 196 202 218 227 212 205 201 193 187 173 168 172 182 181 173 176 188 199 211 223 230 224 211 204 205 207 209 219 230 233 236 241 248 262 280 301 319 330 339 341 340 354 2 356 352 342 325 311 297 284 276
195 168 176 153 342 257 225 221 217 219 221 217 222 220 218 321 293 281 306 319 287 348 128 155 130 140 166 182 195 202 211 208 205 212 209 202 204 216 216 206 205 201 193 186 177 173 176 188 186 176 177 184 191 202 210 208 211 213 212 212 213 219 234 244 244 243 243 248 256 267 283 303 320 333 335 327 330 351 352 350 344 328 311 299 290 285
203 195 218 283 343 312 227 214 209 213 219 218 219 187 152 292 287 273 329 332 235 159 142 186 172 144 158 163 170 184 198 205 212 223 220 210 210 215 212 206 205 203 195 187 181 176 175 185 186 177 175 177 182 196 203 201 203 210 216 219 220 229 245 251 251 252 252 256 262 268 277 291 310 324 327 320 316 336 350 346 343 336 322 303 289 282
207 201 206 266 326 332 207 206 205 209 215 217 210 184 185 278 275 243 306 342 231 173 157 178 147 139 149 152 151 167 183 197 209 218 220 213 215 217 211 207 206 206 200 190 185 179 176 180 178 171 171 173 179 193 201 203 203 209 219 225 228 238 251 255 257 260 262 266 271 277 281 286 298 312 318 314 310 325 343 342 340 339 333 320 301 285
207 210 233 271 312 347 201 206 205 206 211 212 203 206 249 278 265 236 241 298 236 194 201 180 153 145 159 162 153 163 178 185 203 213 219 214 213 212 209 207 207 208 204 196 192 187 179 175 169 166 169 175 182 190 196 201 202 206 215 225 234 242 249 252 255 259 262 266 271 277 282 285 289 300 309 309 306 315 330 335 336 337 336 331 319 301
225 242 264 273 281 277 209 211 208 204 208 214 214 234 260 264 248 222 214 226 207 215 237 193 175 174 182 180 172 168 177 177 185 200 216 216 210 206 204 205 207 209 206 198 197 195 187 178 172 170 173 179 184 189 194 199 200 201 210 221 232 237 241 244 247 252 257 262 267 273 277 279 281 287 298 303 303 307 317 326 332 335 334 332 326 314
243 258 268 261 256 300 253 214 203 198 206 218 228 240 244 239 228 215 211 206 188 248 234 203 198 198 192 185 175 167 174 173 176 189 202 215 212 206 203 203 206 210 207 202 200 199 194 187 181 178 178 182 186 191 196 201 202 202 209 220 229 234 236 237 241 248 255 260 264 269 273 275 275 278 286 293 296 300 308 319 328 332 330 327 324 316
249 257 258 245 245 278 270 219 199 195 204 216 227 225 217 204 198 205 207 185 173 270 204 190 199 203 206 185 162 158 171 177 186 201 201 207 218 217 211 206 206 209 209 206 205 203 200 195 190 184 182 185 188 192 197 202 207 208 214 228 237 242 245 247 252 258 263 267 269 272 276 277 274 274 279 283 288 291 299 311 321 326 324 321 316 306
250 250 249 240 241 258 256 220 204 205 211 217 221 211 198 135 140 198 227 175 193 207 169 170 179 199 225 221 196 185 192 197 203 207 203 207 219 229 224 213 208 208 209 210 210 208 206 203 198 191 187 189 189 191 197 203 210 218 231 250 256 257 258 261 263 264 268 273 275 275 274 271 269 269 274 279 279 281 290 301 309 318 320 318 312 297
255 254 243 234 238 243 236 219 212 215 216 218 224 215 197 122 89 230 260 360 250 193 163 164 170 198 230 233 230 231 239 242 233 231 232 223 219 231 232 220 211 208 210 213 215 216 216 211 207 201 191 190 192 193 200 205 212 226 244 260 265 264 265 268 269 271 272 270 269 267 263 260 260 262 266 272 273 274 283 296 300 309 320 317 312 298
246 254 236 226 230 231 226 225 226 226 219 222 229 223 213 190 151 186 214 185 177 168 163 168 176 220 217 220 234 238 249 259 255 253 250 237 227 228 229 220 211 207 210 214 216 220 221 216 214 207 189 186 193 197 204 210 218 233 247 258 264 267 268 271 272 272 271 268 265 263 264 266 262 256 252 254 267 274 274 284 293 301 316 318 315 316
232 247 232 217 220 224 227 227 226 225 221 221 222 218 220 214 187 171 183 177 156 135 154 180 204 227 211 220 226 226 246 259 253 251 245 235 228 220 219 218 211 207 209 214 217 221 221 218 214 201 179 186 197 200 211 220 230 240 248 256 261 263 265 269 273 273 271 268 265 266 277 281 266 250 245 246 259 268 259 259 278 294 311 322 330 17
224 230 210 207 215 220 228 226 220 222 222 216 212 213 216 213 199 177 151 146 135 130 179 200 212 211 204 219 217 209 231 238 225 231 220 212 214 209 211 217 213 209 211 217 222 223 221 219 213 187 170 198 207 207 219 230 239 244 249 256 259 261 264 265 265 263 259 258 262 273 287 290 270 249 241 240 246 253 252 250 258 280 305 322 358 69
233 228 205 205 214 214 220 227 223 223 224 217 207 209 207 201 200 182 133 92 99 118 207 203 192 197 188 203 213 213 225 218 204 211 201 200 207 201 204 210 209 207 212 223 231 229 219 216 231 223 203 198 203 213 226 233 240 244 248 253 257 260 263 263 264 266 267 269 276 288 294 292 282 262 246 239 237 242 247 242 222 218 265 289 102 107
240 240 211 202 213 211 211 217 215 212 216 217 211 209 203 192 189 176 148 130 152 132 234 215 196 197 194 200 206 208 215 203 193 204 212 219 216 201 205 209 205 206 212 225 239 227 185 174 227 235 219 194 201 220 230 236 243 246 250 254 258 261 264 271 280 287 291 291 288 291 291 284 279 265 249 240 237 241 241 222 203 195 187 185 139 124
232 235 221 200 206 202 195 201 198 191 200 208 212 206 202 204 194 182 176 173 168 157 175 197 269 205 196 199 194 200 209 200 198 216 229 230 216 192 193 201 213 222 226 237 252 189 177 199 212 215 214 211 218 229 234 240 245 249 254 258 262 268 271 282 295 298 299 300 288 284 290 285 273 259 250 241 238 247 244 216 204 196 183 186 162 141
223 225 223 203 201 195 186 195 195 186 192 201 201 196 199 206 191 177 182 178 161 156 154 159 277 195 181 186 188 197 212 209 212 217 196 189 192 180 177 204 224 224 223 238 240 206 196 211 213 212 218 224 227 229 230 235 242 249 259 264 270 277 282 290 300 301 303 305 288 280 286 283 270 257 255 248 245 253 243 206 202 199 189 189 181 168
214 217 218 207 197 189 180 185 182 178 189 195 193 194 199 203 187 167 175 191 172 163 169 162 173 185 175 173 174 179 195 204 208 202 188 184 187 190 205 220 205 201 221 249 228 200 200 213 219 224 230 229 224 222 225 232 245 257 264 270 274 279 287 295 301 304 306 302 290 285 281 274 264 254 256 254 249 248 227 203 207 208 198 193 191 190
208 212 212 195 170 165 167 174 170 173 196 200 194 203 205 205 197 184 181 187 173 157 165 157 137 181 182 172 164 165 174 190 200 202 201 197 194 199 207 207 204 214 237 239 204 186 197 208 220 229 227 223 218 220 230 240 253 264 267 273 279 282 290 298 298 299 299 294 290 289 284 279 274 264 259 254 245 236 221 212 215 216 208 201 200 202
200 201 184 152 137 147 156 165 167 174 204 211 211 217 211 207 204 203 207 194 179 166 160 146 121 185 189 181 172 173 174 180 196 204 199 193 196 200 197 197 209 221 220 203 186 180 192 210 233 238 226 228 237 238 240 245 254 264 270 276 282 287 291 293 291 289 287 283 279 281 284 284 284 276 259 243 237 231 222 216 218 221 218 210 208 210
196 191 166 143 120 136 152 164 174 175 192 203 199 200 206 208 206 210 211 193 182 182 181 172 156 181 190 191 182 177 175 172 186 197 193 189 192 191 188 193 203 201 193 189 188 192 201 214 228 226 218 226 235 233 233 242 253 263 274 282 286 289 291 287 282 278 274 271 267 269 276 277 276 274 257 233 229 227 223 220 221 226 226 220 216 216
194 180 169 160 152 171 178 189 188 180 183 189 185 183 186 191 197 203 198 188 184 190 192 189 169 172 186 196 189 180 179 170 174 186 188 188 191 193 197 201 196 190 191 193 193 197 201 201 200 200 203 211 217 224 237 251 262 270 279 285 288 289 289 286 279 271 266 262 258 260 267 269 268 267 259 238 228 227 226 225 227 231 231 227 222 222
203 177 172 179 183 188 194 194 188 185 182 175 172 178 176 173 184 189 189 195 194 190 192 195 178 173 177 188 189 187 187 179 172 177 183 189 196 201 202 197 193 193 195 194 191 189 190 192 195 202 210 218 228 241 252 258 265 273 278 281 283 283 284 283 279 272 266 261 255 255 258 261 261 259 258 247 235 231 230 230 232 233 231 229 227 225
206 172 157 162 161 172 190 183 184 188 184 170 165 172 173 171 183 192 190 208 199 190 195 194 181 178 176 178 186 190 189 187 179 177 184 192 198 201 200 198 199 201 197 194 194 195 199 207 215 225 235 244 253 260 264 268 271 273 274 274 274 275 274 275 275 273 269 263 257 253 251 252 252 252 254 252 244 240 236 234 236 234 231 232 232 229
215 182 158 164 153 142 137 134 178 192 180 161 156 157 179 185 191 244 268 239 204 203 219 199 183 181 178 174 179 183 185 187 185 184 189 195 199 200 201 203 205 206 205 206 210 213 219 227 235 244 253 260 266 270 273 276 277 275 273 270 268 267 265 266 267 268 269 266 261 255 248 245 244 244 246 246 245 245 243 242 244 243 239 238 238 235
227 210 201 205 188 181 186 164 160 169 148 132 11 330 302 259 243 272 278 250 223 231 246 208 188 182 177 174 175 176 177 182 185 189 194 198 200 203 205 209 211 214 217 219 222 226 231 239 247 253 259 264 268 272 274 276 277 275 274 271 268 264 260 259 260 261 265 266 263 257 251 248 248 248 247 245 245 247 248 246 249 251 250 249 248 243
221 204 203 214 198 183 199 203 208 215 218 263 287 300 296 273 258 257 257 247 234 233 233 209 193 185 179 178 180 178 177 180 183 188 194 197 202 207 210 215 218 221 222 223 226 231 236 243 249 253 259 263 267 271 275 278 279 277 275 273 270 266 261 256 254 253 257 261 260 257 255 253 253 253 253 250 249 251 253 251 251 253 255 256 256 253
213 201 202 212 200 187 210 233 247 251 249 251 253 255 260 261 252 244 241 238 235 230 221 206 197 191 187 187 189 189 188 188 189 192 197 201 206 210 213 217 221 224 228 230 233 237 241 245 249 252 257 262 267 271 275 276 277 277 276 275 272 269 263 257 251 249 250 253 254 252 253 253 253 254 255 254 252 250 252 252 252 253 253 250 250 249
207 206 204 208 201 192 205 222 215 201 199 209 213 219 232 237 229 228 227 224 224 221 215 209 202 197 194 193 195 199 199 199 200 203 206 209 212 215 218 221 225 228 232 235 238 241 245 247 250 254 258 261 266 269 272 274 274 276 278 279 278 275 269 260 251 246 244 246 248 249 250 252 253 253 254 255 255 253 252 251 247 244 242 237 236 235
200 206 199 196 184 169 168 165 157 156 168 194 195 200 210 215 217 222 220 215 213 210 211 213 209 203 199 196 198 201 201 202 205 209 213 215 217 220 224 227 231 235 237 239 241 244 248 251 256 260 262 264 266 268 270 272 273 277 280 282 281 278 273 265 253 244 242 243 246 249 252 254 254 253 252 252 253 253 252 248 242 236 234 232 228 223
199 197 194 191 176 162 162 159 150 178 221 190 183 190 196 199 210 220 217 211 209 209 210 213 212 209 206 202 201 203 204 206 210 215 220 224 226 229 232 234 237 240 242 245 248 251 255 259 263 266 266 265 264 265 266 267 271 276 280 281 281 279 275 269 261 252 246 244 246 248 251 255 255 253 250 248 247 247 246 243 238 235 234 232 228 221
205 200 198 193 175 165 169 170 171 224 212 187 184 191 191 188 195 210 211 205 204 206 208 210 211 210 207 205 205 208 211 215 220 225 230 236 239 241 243 244 245 247 249 251 253 256 259 262 264 267 266 263 261 262 264 267 271 275 277 278 277 274 271 269 265 258 248 243 245 247 247 250 251 249 247 244 241 239 237 235 234 234 235 235 233 230
203 201 200 195 184 176 175 173 176 190 193 188 187 188 192 193 195 203 207 203 202 204 204 206 209 208 206 209 212 215 220 225 228 231 235 240 246 250 253 255 256 258 258 258 259 260 261 263 264 266 267 266 266 267 268 270 271 272 273 272 271 268 266 266 265 259 248 241 240 240 241 244 246 245 241 238 234 230 227 228 230 234 237 240 240 239
213 212 210 206 201 194 180 157 145 162 208 198 192 192 199 202 201 202 206 206 205 204 203 205 209 211 212 216 220 223 228 231 232 234 238 243 248 253 258 262 263 264 264 264 264 264 264 266 265 266 267 269 270 271 271 270 270 270 271 272 272 273 272 272 272 269 263 256 248 240 236 238 241 241 237 232 228 225 223 226 230 235 239 242 243 242
231 229 225 222 216 206 196 180 176 199 206 196 193 196 200 199 197 197 203 211 210 208 206 206 209 214 218 222 225 229 233 235 237 240 244 247 252 256 260 263 264 265 266 265 265 264 264 264 264 265 266 266 266 268 268 268 268 269 271 272 272 274 275 274 275 275 272 269 263 251 240 234 235 236 234 232 230 229 229 232 235 239 241 241 241 241
233 232 228 224 223 214 207 201 202 208 199 191 194 198 198 196 194 190 197 214 210 208 210 209 208 213 217 220 225 229 233 237 241 244 247 250 254 258 261 263 263 264 265 265 266 267 266 267 267 267 267 267 266 266 266 267 269 270 271 271 271 272 271 270 271 271 269 266 263 256 247 239 235 234 235 238 239 238 238 237 237 236 236 235 236 237
219 223 221 219 219 214 207 201 198 205 201 196 198 199 198 197 196 197 209 217 208 205 208 208 208 212 215 219 224 228 233 238 242 247 251 253 256 259 261 264 264 265 266 267 268 268 269 269 268 267 267 268 269 269 269 269 270 270 270 269 269 270 270 270 270 270 269 268 265 260 254 249 245 241 239 241 242 240 238 236 234 232 230 230 231 233
184 194 204 208 209 207 203 194 181 190 201 200 201 201 198 198 202 209 217 217 205 202 204 206 208 214 218 224 229 233 238 243 246 251 254 257 260 261 263 265 266 267 268 268 268 268 268 267 266 264 264 264 266 267 268 268 269 269 269 269 267 266 267 268 270 271 271 271 270 267 261 258 256 252 247 244 243 242 240 236 231 227 226 229 232 233
166 153 159 179 187 191 190 182 174 200 205 199 199 200 199 202 210 213 214 212 204 201 203 207 212 217 223 230 237 244 251 255 258 262 263 265 267 268 269 270 270 270 270 269 269 269 268 267 266 265 265 265 265 265 266 266 266 266 267 267 267 266 264 264 265 266 267 267 268 267 264 261 259 258 254 247 243 242 241 237 232 231 233 235 234 234
136 171 163 166 180 191 187 180 184 199 197 194 197 200 200 206 215 216 212 209 206 203 205 211 217 224 232 239 247 255 262 267 270 273 275 276 277 277 277 277 277 277 276 275 275 274 273 272 271 270 269 268 268 268 267 267 266 265 264 263 262 262 262 262 261 260 260 260 261 262 262 260 258 257 255 249 245 243 241 239 237 236 237 238 237 235
136 178 185 200 204 203 201 194 187 187 186 188 194 197 198 202 208 209 207 207 209 215 225 234 241 248 254 261 267 272 274 276 278 279 281 282 282 282 282 282 281 281 280 279 278 277 276 276 275 273 272 270 269 269 268 268 268 266 265 263 259 257 257 257 257 257 256 255 255 255 257 257 255 255 255 255 253 249 245 243 241 237 235 238 240 240
149 155 170 197 178 166 172 176 176 179 180 183 189 195 199 201 207 216 228 238 247 259 268 274 279 281 283 285 285 285 285 285 285 285 284 284 284 285 284 284 283 282 281 280 279 278 278 277 276 275 274 272 270 269 267 267 267 267 267 265 263 259 256 253 252 252 252 251 251 251 251 252 252 251 251 253 255 253 247 245 244 240 239 244 248 249
141 132 118 135 149 147 149 155 164 177 184 189 205 223 241 257 269 279 286 289 291 293 293 293 293 292 291 289 288 288 288 288 287 287 287 287 286 285 284 283 282 282 281 281 280 280 279 279 278 277 275 274 272 270 268 266 266 266 266 266 265 263 259 256 253 250 248 246 246 246 246 248 250 251 250 250 251 251 248 246 243 241 244 250 254 257
162 129 104 127 134 141 160 168 177 190 195 215 261 277 288 295 297 297 295 292 292 290 288 287 285 284 283 284 284 285 285 286 287 287 286 286 286 286 285 285 284 284 283 283 283 283 282 281 280 279 278 276 275 272 270 268 266 264 263 263 262 262 260 257 255 252 249 246 243 242 241 242 243 245 247 249 250 251 250 249 245 245 250 254 257 260
222 251 239 204 183 160 176 191 206 213 217 238 258 265 272 276 278 279 280 279 279 279 278 278 278 279 280 280 281 282 282 283 284 284 285 285 286 286 287 286 286 286 287 287 286 285 284 283 282 281 280 279 277 275 272 270 267 265 263 261 260 260 259 257 255 254 252 250 246 242 240 239 238 237 236 238 243 247 250 250 247 246 247 249 249 253
237 252 246 232 227 226 227 237 242 243 253 266 271 273 275 275 273 273 273 274 275 277 278 280 280 280 280 280 280 281 281 282 283 285 287 288 288 288 288 288 289 291 291 290 289 287 285 284 283 281 280 279 278 277 275 272 269 266 263 261 259 258 258 257 256 254 253 252 250 247 243 241 240 239 237 235 236 239 243 245 244 243 244 244 245 248
234 228 214 210 216 229 238 241 253 271 281 284 283 283 282 280 280 280 280 280 282 283 283 284 284 284 284 285 286 287 287 289 290 290 290 291 291 291 292 294 296 297 296 294 292 290 288 286 284 283 281 280 278 277 275 274 272 268 265 262 259 257 256 256 255 255 253 251 250 249 246 243 242 242 242 241 240 239 240 240 240 238 239 241 243 246
Height
3079 3080 3081 3082 3083 3085 3086 3087 3087 3089 3090 3090 3092 3092 3093 3093 3093 3094 3094 3094 3093 3091 3090 3090 3092 3094 3097 3098 3100 3102 3103 3104 3104 3106 3107 3109 3111 3114 3116 3118 3119 3120 3121 3121 3122 3123 3124 3125 3126 3128 3129 3131 3133 3134 3136 3137 3138 3138 3140 3141 3143 3144 3145 3146 3146 3147 3147 3147 3147 3147 3146 3146 3145 3144 3142 3141 3139 3138 3137 3136 3135 3135 3135 3135 3135 3136
3078 3079 3080 3081 3083 3084 3085 3085 3086 3088 3089 3090 3091 3091 3092 3092 3092 3093 3093 3092 3091 3090 3088 3089 3090 3093 3095 3097 3099 3100 3102 3103 3103 3105 3106 3108 3110 3113 3115 3117 3119 3119 3120 3121 3122 3123 3123 3125 3126 3127 3129 3130 3132 3133 3135 3136 3137 3138 3139 3141 3142 3144 3145 3145 3146 3146 3146 3146 3147 3146 3146 3145 3145 3144 3143 3141 3140 3138 3137 3136 3134 3134 3134 3134 3134 3135
3078 3078 3079 3081 3082 3083 3083 3084 3085 3087 3088 3089 3089 3090 3091 3091 3091 3091 3092 3091 3090 3089 3087 3088 3089 3092 3094 3096 3098 3099 3101 3102 3103 3105 3106 3108 3110 3112 3114 3116 3117 3118 3119 3120 3121 3122 3123 3124 3125 3127 3128 3130 3131 3133 3134 3135 3136 3138 3139 3140 3142 3143 3144 3144 3145 3145 3145 3145 3145 3145 3145 3145 3144 3144 3143 3142 3140 3139 3137 3136 3135 3133 3133 3133 3133 3133
3077 3078 3079 3081 3081 3082 3083 3083 3085 3086 3087 3087 3088 3089 3090 3090 3091 3090 3090 3091 3090 3089 3087 3087 3089 3091 3093 3095 3096 3098 3100 3101 3103 3104 3106 3107 3109 3112 3114 3115 3116 3118 3119 3120 3121 3122 3123 3124 3125 3126 3127 3129 3130 3132 3133 3134 3136 3137 3138 3139 3141 3142 3143 3143 3144 3144 3144 3144 3144 3144 3144 3144 3144 3143 3143 3142 3141 3139 3138 3136 3135 3133 3132 3132 3132 3132
3077 3078 3079 3080 3081 3081 3082 3083 3084 3084 3085 3086 3087 3088 3089 3089 3090 3089 3089 3090 3090 3089 3088 3088 3089 3090 3092 3094 3095 3097 3099 3100 3102 3103 3105 3106 3108 3110 3112 3114 3116 3117 3118 3119 3120 3121 3122 3123 3124 3126 3127 3128 3129 3131 3133 3134 3135 3136 3137 3139 3140 3141 3142 3142 3143 3143 3144 3144 3143 3143 3143 3143 3143 3143 3143 3143 3141 3140 3138 3137 3135 3134 3132 3131 3131 3131
3076 3077 3078 3079 3080 3080 3081 3082 3082 3083 3084 3086 3087 3087 3088 3088 3089 3089 3089 3089 3089 3089 3089 3089 3090 3091 3092 3093 3095 3096 3098 3099 3101 3102 3104 3105 3107 3109 3111 3113 3114 3116 3117 3118 3119 3120 3121 3123 3124 3125 3126 3128 3129 3131 3132 3133 3134 3135 3136 3138 3139 3140 3141 3141 3142 3142 3143 3143 3143 3143 3143 3143 3143 3143 3143 3142 3142 3140 3139 3138 3136 3134 3133 3131 3131 3131
3075 3076 3077 3078 3078 3078 3079 3080 3081 3082 3083 3084 3085 3086 3087 3088 3088 3088 3088 3089 3089 3089 3090 3089 3090 3091 3092 3093 3095 3096 3097 3099 3100 3101 3102 3104 3106 3108 3110 3111 3113 3115 3116 3117 3118 3119 3121 3122 3123 3124 3126 3127 3128 3130 3131 3132 3133 3134 3136 3137 3137 3138 3139 3140 3141 3141 3142 3142 3143 3143 3143 3143 3142 3142 3142 3142 3141 3140 3139 3138 3136 3135 3133 3132 3131 3131
3074 3075 3076 3077 3077 3077 3078 3079 3081 3081 3082 3083 3084 3085 3086 3087 3088 3088 3088 3088 3088 3089 3089 3089 3089 3090 3092 3094 3095 3096 3097 3098 3099 3100 3101 3102 3104 3106 3108 3110 3112 3113 3115 3116 3117 3118 3119 3121 3122 3124 3125 3126 3128 3129 3130 3131 3133 3133 3134 3135 3136 3137 3138 3139 3140 3140 3140 3141 3142 3142 3142 3142 3142 3142 3142 3141 3141 3140 3139 3137 3136 3134 3133 3132 3131 3130
3074 3074 3075 3076 3076 3076 3077 3078 3079 3080 3081 3082 3083 3084 3085 3086 3087 3087 3088 3088 3088 3088 3088 3089 3089 3090 3092 3094 3095 3096 3096 3097 3098 3099 3100 3101 3102 3104 3106 3108 3110 3112 3114 3115 3116 3117 3118 3120 3121 3122 3124 3125 3126 3128 3129 3130 3131 3132 3133 3134 3135 3136 3137 3138 3139 3139 3140 3140 3141 3141 3141 3141 3141 3141 3141 3141 3140 3140 3139 3138 3136 3134 3133 3132 3130 3130
3073 3073 3074 3074 3075 3075 3076 3077 3078 3079 3080 3081 3082 3084 3084 3085 3086 3086 3087 3087 3088 3088 3088 3088 3088 3089 3091 3093 3094 3095 3096 3097 3098 3098 3099 3100 3101 3102 3104 3106 3108 3110 3112 3113 3114 3116 3117 3119 3120 3121 3122 3124 3125 3126 3127 3129 3130 3130 3131 3132 3133 3135 3136 3137 3138 3138 3139 3139 3139 3140 3140 3140 3140 3140 3140 3140 3140 3140 3139 3138 3136 3134 3132 3131 3130 3129
3071 3072 3072 3073 3073 3074 3075 3076 3077 3078 3079 3080 3081 3082 3083 3084 3085 3085 3086 3087 3088 3088 3088 3088 3088 3089 3091 3092 3093 3094 3095 3096 3097 3098 3099 3099 3100 3102 3103 3104 3107 3109 3110 3111 3113 3114 3115 3117 3118 3119 3120 3122 3123 3125 3126 3127 3128 3129 3129 3130 3131 3133 3134 3135 3136 3137 3138 3138 3138 3139 3139 3139 3139 3140 3140 3140 3139 3139 3139 3137 3136 3134 3132 3131 3130 3129
3070 3070 3071 3072 3072 3073 3074 3075 3076 3077 3078 3079 3080 3081 3082 3083 3084 3085 3085 3086 3088 3089 3088 3087 3088 3089 3090 3091 3092 3093 3094 3095 3096 3097 3098 3099 3100 3101 3102 3103 3105 3107 3109 3110 3111 3112 3113 3114 3115 3117 3118 3120 3122 3123 3124 3126 3127 3127 3128 3129 3129 3131 3132 3134 3135 3136 3136 3137 3138 3138 3138 3138 3138 3138 3139 3139 3138 3138 3138 3137 3135 3134 3133 3131 3130 3129
3068 3068 3070 3070 3071 3072 3073 3074 3075 3076 3077 3078 3079 3080 3081 3083 3084 3085 3086 3087 3087 3088 3087 3087 3088 3088 3088 3088 3090 3091 3092 3093 3094 3095 3097 3098 3099 3099 3101 3102 3104 3106 3107 3108 3110 3111 3112 3113 3114 3116 3117 3119 3121 3122 3124 3125 3126 3126 3127 3127 3128 3129 3131 3132 3133 3134 3135 3136 3136 3137 3137 3137 3136 3136 3137 3137 3138 3137 3137 3136 3135 3134 3133 3131 3130 3129
3066 3067 3068 3069 3070 3070 3071 3072 3073 3074 3075 3076 3077 3078 3079 3082 3084 3087 3088 3089 3087 3086 3086 3087 3087 3086 3086 3086 3087 3089 3090 3092 3093 3094 3095 3096 3097 3098 3099 3100 3102 3104 3106 3107 3109 3109 3110 3112 3113 3115 3117 3119 3120 3122 3123 3124 3125 3125 3125 3126 3127 3128 3129 3130 3130 3132 3133 3133 3133 3134 3134 3134 3134 3134 3135 3135 3136 3136 3136 3135 3135 3134 3133 3132 3131 3130
3065 3065 3066 3067 3068 3068 3070 3071 3072 3073 3074 3075 3076 3076 3077 3079 3081 3084 3086 3085 3084 3085 3085 3086 3086 3085 3084 3085 3086 3087 3088 3090 3091 3092 3093 3094 3095 3096 3097 3098 3100 3102 3104 3105 3105 3106 3108 3110 3111 3113 3115 3117 3119 3121 3122 3123 3123 3124 3125 3126 3126 3127 3127 3127 3128 3129 3129 3129 3130 3130 3131 3132 3132 3132 3133 3133 3134 3135 3135 3135 3134 3134 3133 3132 3131 3130
3065 3064 3064 3065 3066 3067 3068 3069 3070 3071 3072 3073 3074 3075 3076 3076 3077 3080 3082 3081 3082 3084 3085 3085 3085 3084 3084 3085 3086 3087 3088 3089 3090 3091 3092 3092 3093 3094 3095 3096 3097 3099 3101 3102 3103 3104 3105 3107 3110 3113 3115 3117 3119 3120 3121 3122 3122 3123 3124 3125 3125 3125 3125 3126 3127 3126 3124 3124 3126 3127 3129 3130 3130 3130 3130 3131 3132 3133 3134 3134 3134 3134 3133 3132 3131 3130
3063 3063 3063 3064 3065 3066 3067 3067 3068 3070 3070 3071 3072 3073 3074 3075 3076 3078 3080 3081 3082 3083 3084 3084 3084 3084 3084 3085 3086 3087 3088 3089 3090 3090 3090 3091 3091 3092 3093 3094 3096 3098 3100 3101 3101 3101 3102 3105 3111 3114 3116 3117 3119 3119 3120 3121 3121 3122 3122 3123 3123 3123 3124 3125 3123 3119 3118 3120 3124 3127 3128 3129 3128 3128 3128 3129 3131 3132 3133 3134 3134 3133 3133 3132 3132 3131
3062 3062 3063 3063 3064 3065 3065 3066 3067 3068 3069 3070 3070 3071 3072 3074 3075 3075 3079 3082 3083 3083 3083 3084 3083 3084 3084 3085 3085 3086 3087 3088 3089 3090 3090 3090 3090 3090 3091 3092 3094 3096 3098 3099 3098 3099 3102 3107 3111 3113 3115 3117 3118 3118 3119 3120 3120 3120 3121 3121 3120 3121 3122 3119 3115 3116 3119 3121 3125 3127 3127 3126 3126 3127 3126 3127 3128 3130 3131 3133 3133 3133 3133 3132 3132 3131
3061 3062 3062 3063 3063 3063 3064 3064 3065 3066 3067 3068 3068 3069 3070 3071 3072 3073 3076 3080 3082 3084 3085 3084 3084 3084 3083 3084 3085 3085 3086 3087 3088 3089 3090 3090 3090 3090 3091 3092 3093 3094 3096 3097 3098 3101 3104 3107 3109 3111 3113 3115 3115 3117 3117 3118 3118 3119 3119 3119 3118 3119 3119 3117 3116 3120 3123 3122 3123 3124 3124 3124 3124 3124 3124 3125 3126 3127 3129 3132 3132 3132 3133 3132 3132 3132
3060 3061 3061 3062 3062 3062 3063 3063 3064 3064 3065 3066 3067 3068 3068 3069 3070 3071 3073 3074 3077 3082 3085 3084 3084 3083 3082 3083 3084 3084 3085 3086 3087 3088 3089 3090 3091 3091 3092 3093 3094 3096 3097 3099 3101 3103 3105 3106 3108 3110 3112 3113 3114 3115 3116 3117 3117 3117 3117 3117 3117 3117 3118 3118 3118 3119 3119 3119 3121 3121 3121 3121 3122 3122 3122 3123 3124 3125 3128 3131 3131 3131 3132 3133 3133 3133
3058 3059 3060 3061 3061 3061 3061 3062 3062 3062 3063 3064 3065 3066 3067 3068 3069 3070 3072 3072 3073 3077 3081 3082 3083 3082 3081 3082 3083 3083 3084 3085 3086 3087 3089 3090 3091 3092 3094 3095 3096 3098 3099 3101 3103 3103 3104 3106 3108 3109 3111 3112 3113 3114 3115 3115 3116 3116 3115 3115 3115 3115 3116 3117 3117 3116 3117 3118 3119 3119 3119 3119 3119 3119 3120 3120 3121 3124 3127 3129 3130 3130 3131 3132 3133 3133
3056 3057 3059 3060 3060 3060 3060 3060 3061 3062 3062 3063 3064 3065 3066 3067 3068 3069 3071 3072 3072 3073 3076 3078 3079 3080 3080 3081 3082 3082 3083 3084 3085 3087 3088 3090 3091 3092 3094 3095 3097 3098 3099 3101 3102 3103 3104 3106 3107 3109 3110 3111 3112 3113 3113 3114 3114 3114 3114 3113 3113 3114 3115 3116 3115 3114 3115 3117 3117 3117 3117 3117 3117 3118 3118 3118 3120 3123 3126 3127 3128 3129 3129 3130 3131 3132
3055 3056 3057 3059 3059 3059 3060 3060 3060 3061 3062 3062 3063 3064 3065 3066 3066 3067 3069 3070 3071 3072 3073 3074 3076 3078 3079 3080 3081 3081 3082 3083 3084 3086 3087 3089 3091 3092 3093 3094 3096 3097 3098 3100 3101 3103 3104 3106 3107 3109 3110 3111 3112 3112 3112 3113 3113 3112 3112 3111 3111 3112 3113 3113 3113 3113 3114 3115 3115 3115 3115 3116 3117 3117 3117 3117 3118 3121 3124 3126 3127 3128 3129 3129 3129 3130
3053 3054 3056 3058 3059 3059 3059 3059 3060 3060 3060 3061 3062 3063 3064 3065 3065 3066 3067 3068 3069 3070 3071 3072 3075 3077 3077 3078 3080 3080 3081 3082 3083 3085 3087 3089 3090 3092 3093 3094 3095 3097 3098 3099 3101 3102 3104 3106 3107 3108 3110 3111 3111 3112 3112 3112 3111 3111 3110 3110 3110 3110 3111 3112 3112 3112 3113 3114 3114 3114 3114 3115 3116 3115 3115 3115 3117 3119 3122 3123 3125 3126 3127 3127 3127 3127
3052 3053 3054 3056 3059 3060 3060 3059 3059 3059 3060 3060 3061 3062 3063 3064 3065 3065 3066 3067 3067 3068 3069 3071 3073 3075 3076 3077 3078 3079 3080 3081 3082 3084 3086 3088 3090 3091 3093 3094 3095 3096 3098 3099 3101 3102 3103 3105 3106 3106 3108 3109 3110 3110 3111 3110 3110 3110 3110 3109 3109 3109 3109 3110 3111 3111 3112 3112 3112 3112 3112 3113 3113 3113 3113 3114 3115 3117 3119 3121 3122 3124 3125 3126 3126 3126
3051 3052 3052 3054 3056 3058 3058 3057 3057 3058 3059 3060 3060 3061 3062 3064 3064 3065 3065 3066 3066 3067 3068 3069 3070 3072 3074 3076 3077 3079 3079 3080 3081 3083 3085 3087 3088 3090 3091 3093 3094 3095 3097 3098 3100 3101 3102 3103 3104 3105 3105 3106 3107 3108 3108 3109 3109 3109 3108 3108 3108 3107 3108 3109 3110 3110 3110 3110 3111 3111 3111 3111 3111 3111 3111 3113 3114 3116 3117 3119 3120 3122 3123 3123 3123 3124
3050 3050 3051 3053 3054 3055 3055 3056 3056 3057 3058 3059 3060 3061 3062 3063 3064 3064 3065 3065 3065 3066 3067 3068 3069 3070 3072 3074 3076 3077 3078 3079 3080 3082 3083 3085 3087 3089 3090 3091 3092 3094 3095 3096 3098 3099 3100 3101 3102 3102 3103 3104 3105 3106 3106 3106 3107 3107 3107 3107 3106 3106 3106 3106 3107 3108 3108 3108 3109 3109 3109 3109 3109 3109 3110 3111 3113 3114 3115 3117 3118 3119 3120 3120 3119 3120
3049 3050 3051 3052 3054 3055 3056 3056 3057 3057 3058 3059 3060 3060 3061 3062 3063 3064 3065 3065 3065 3066 3066 3068 3069 3070 3071 3073 3074 3075 3077 3078 3079 3080 3082 3084 3086 3087 3089 3090 3091 3092 3093 3095 3096 3097 3098 3099 3099 3100 3101 3102 3103 3103 3104 3104 3104 3104 3105 3104 3104 3104 3104 3104 3104 3104 3105 3105 3106 3106 3106 3107 3107 3108 3108 3109 3110 3112 3112 3114 3114 3115 3117 3117 3116 3117
3049 3050 3050 3052 3053 3055 3056 3057 3058 3058 3058 3059 3060 3060 3061 3061 3062 3064 3065 3065 3065 3066 3066 3067 3068 3069 3070 3071 3072 3074 3075 3076 3078 3079 3081 3082 3084 3085 3087 3088 3089 3091 3092 3093 3094 3095 3095 3096 3097 3098 3099 3099 3100 3100 3101 3101 3102 3102 3102 3102 3102 3102 3101 3102 3101 3101 3102 3102 3103 3103 3104 3104 3104 3105 3106 3106 3107 3108 3109 3110 3111 3112 3114 3114 3114 3115
3048 3050 3051 3051 3053 3055 3056 3057 3058 3058 3057 3058 3059 3060 3061 3061 3062 3063 3065 3066 3066 3066 3067 3067 3067 3068 3069 3070 3071 3073 3074 3075 3076 3078 3079 3081 3082 3083 3084 3086 3087 3088 3089 3090 3091 3092 3093 3094 3094 3095 3096 3096 3097 3097 3098 3099 3099 3099 3099 3099 3099 3099 3099 3099 3100 3100 3100 3100 3100 3101 3101 3102 3102 3103 3103 3103 3104 3105 3105 3106 3107 3108 3110 3110 3110 3111
3046 3048 3050 3051 3052 3054 3055 3056 3057 3058 3058 3059 3059 3060 3061 3061 3062 3063 3065 3066 3067 3067 3067 3067 3067 3068 3069 3070 3071 3072 3074 3075 3076 3077 3078 3080 3081 3081 3082 3083 3084 3085 3087 3088 3089 3089 3090 3091 3092 3093 3094 3094 3094 3095 3095 3096 3096 3097 3097 3097 3097 3097 3097 3097 3097 3098 3098 3098 3098 3098 3099 3100 3100 3100 3101 3101 3102 3102 3102 3103 3103 3104 3105 3105 3105 3107
3045 3046 3048 3049 3051 3053 3054 3055 3056 3057 3059 3059 3059 3060 3060 3061 3062 3063 3064 3066 3066 3066 3066 3067 3067 3068 3069 3070 3071 3072 3073 3075 3076 3077 3078 3079 3080 3081 3081 3082 3083 3084 3085 3085 3086 3087 3088 3089 3090 3091 3091 3092 3092 3092 3092 3093 3093 3094 3094 3095 3095 3095 3095 3095 3095 3095 3096 3096 3096 3097 3097 3097 3098 3098 3099 3099 3099 3099 3100 3100 3100 3100 3100 3101 3101 3102
3044 3045 3046 3047 3049 3051 3052 3054 3055 3056 3057 3057 3057 3058 3059 3060 3061 3063 3064 3065 3065 3065 3066 3066 3066 3066 3067 3068 3070 3071 3072 3074 3075 3076 3077 3078 3079 3080 3081 3082 3082 3083 3083 3084 3085 3085 3086 3086 3087 3088 3089 3089 3089 3090 3090 3090 3090 3091 3092 3092 3093 3093 3093 3093 3092 3093 3093 3094 3094 3095 3095 3096 3096 3096 3097 3097 3097 3097 3097 3097 3097 3097 3097 3098 3098 3099
3043 3044 3045 3046 3047 3049 3051 3053 3054 3055 3055 3055 3055 3056 3057 3058 3060 3061 3063 3063 3064 3064 3065 3065 3066 3066 3066 3067 3068 3070 3071 3072 3074 3075 3076 3077 3078 3079 3080 3081 3081 3081 3082 3082 3083 3083 3084 3084 3085 3085 3086 3087 3087 3087 3087 3088 3088 3088 3089 3089 3090 3090 3090 3090 3090 3090 3090 3091 3092 3092 3093 3093 3094 3094 3094 3095 3095 3095 3095 3095 3095 3095 3095 3096 3096 3097
3043 3044 3045 3046 3047 3049 3051 3053 3054 3054 3053 3053 3054 3055 3056 3057 3059 3060 3061 3062 3062 3062 3063 3064 3065 3065 3066 3067 3068 3069 3070 3072 3073 3074 3075 3076 3077 3078 3078 3079 3080 3080 3080 3081 3081 3082 3082 3082 3083 3083 3084 3085 3085 3085 3085 3085 3085 3085 3085 3086 3086 3086 3087 3087 3087 3087 3088 3088 3089 3089 3090 3090 3091 3091 3091 3091 3092 3093 3093 3093 3093 3093 3094 3094 3095 3096
3042 3043 3045 3046 3046 3048 3050 3051 3052 3052 3052 3053 3054 3054 3055 3057 3058 3059 3060 3060 3060 3061 3062 3063 3064 3065 3066 3066 3067 3068 3069 3071 3072 3073 3074 3075 3075 3076 3077 3078 3078 3078 3079 3079 3079 3080 3080 3080 3081 3081 3081 3082 3082 3082 3083 3083 3083 3082 3082 3082 3082 3082 3083 3083 3084 3084 3084 3085 3085 3086 3086 3087 3087 3088 3088 3089 3089 3090 3090 3091 3091 3091 3091 3092 3093 3094
3041 3042 3043 3044 3045 3046 3048 3048 3049 3051 3051 3052 3052 3054 3054 3055 3056 3058 3059 3059 3060 3060 3061 3062 3063 3064 3065 3066 3067 3067 3068 3069 3070 3071 3072 3073 3074 3074 3075 3075 3076 3076 3077 3077 3077 3078 3078 3078 3078 3078 3078 3079 3079 3080 3080 3080 3080 3079 3079 3078 3078 3079 3079 3080 3080 3080 3080 3080 3081 3082 3083 3083 3084 3085 3085 3086 3086 3087 3087 3088 3088 3088 3089 3090 3091 3092
3039 3040 3041 3042 3043 3044 3045 3047 3050 3051 3050 3050 3051 3052 3053 3054 3055 3057 3058 3059 3059 3059 3060 3061 3062 3063 3064 3065 3066 3067 3068 3068 3069 3070 3071 3072 3072 3073 3073 3073 3074 3074 3074 3074 3074 3074 3074 3074 3074 3075 3075 3075 3075 3076 3076 3076 3076 3076 3076 3076 3076 3076 3076 3077 3077 3078 3078 3078 3078 3079 3080 3080 3081 3081 3082 3083 3083 3084 3084 3084 3085 3086 3087 3088 3088 3089
3037 3038 3039 3040 3041 3042 3043 3045 3047 3047 3047 3047 3049 3050 3051 3053 3055 3056 3058 3058 3058 3058 3059 3060 3061 3062 3063 3064 3065 3066 3066 3067 3068 3068 3069 3070 3070 3071 3071 3071 3071 3071 3072 3072 3071 3071 3071 3071 3071 3071 3071 3071 3072 3072 3072 3072 3073 3073 3073 3073 3073 3074 3073 3073 3073 3074 3074 3075 3075 3076 3077 3077 3077 3078 3079 3080 3080 3081 3081 3082 3082 3083 3084 3085 3086 3086
3035 3037 3038 3039 3039 3040 3041 3042 3043 3044 3045 3046 3047 3048 3050 3052 3054 3056 3056 3055 3055 3057 3058 3059 3060 3061 3062 3063 3063 3064 3065 3065 3066 3066 3067 3068 3068 3068 3069 3069 3069 3069 3069 3069 3068 3068 3068 3068 3068 3068 3068 3068 3068 3068 3068 3068 3069 3069 3069 3069 3069 3070 3070 3070 3070 3070 3070 3071 3072 3073 3074 3074 3075 3075 3076 3077 3077 3078 3078 3079 3080 3081 3082 3082 3083 3084
3034 3035 3036 3037 3037 3038 3040 3041 3042 3042 3043 3044 3045 3047 3049 3051 3053 3053 3052 3052 3053 3056 3057 3057 3058 3059 3060 3061 3061 3062 3063 3063 3063 3064 3064 3065 3065 3065 3065 3066 3066 3066 3066 3065 3065 3064 3064 3064 3064 3064 3064 3064 3064 3064 3064 3064 3064 3064 3065 3065 3065 3066 3066 3066 3066 3067 3067 3068 3069 3070 3070 3071 3072 3073 3074 3074 3074 3075 3075 3076 3077 3078 3079 3079 3080 3081
3034 3034 3035 3035 3036 3037 3038 3039 3041 3041 3042 3043 3045 3046 3048 3050 3050 3049 3049 3051 3053 3054 3055 3056 3057 3057 3058 3059 3059 3060 3060 3060 3061 3061 3061 3061 3061 3062 3062 3062 3062 3062 3061 3061 3061 3060 3060 3060 3060 3060 3060 3060 3059 3059 3059 3059 3059 3059 3060 3060 3061 3062 3062 3062 3062 3062 3063 3064 3065 3066 3067 3068 3068 3069 3070 3071 3071 3072 3072 3073 3074 3075 3076 3077 3078 3079
3034 3034 3035 3035 3036 3036 3037 3038 3039 3040 3041 3043 3044 3045 3047 3048 3048 3048 3049 3050 3051 3052 3053 3054 3055 3055 3056 3056 3057 3057 3057 3057 3057 3057 3057 3057 3057 3057 3057 3057 3057 3057 3057 3056 3056 3055 3055 3055 3055 3055 3055 3055 3055 3055 3054 3053 3054 3054 3054 3055 3056 3057 3057 3057 3057 3057 3058 3059 3060 3061 3062 3063 3063 3064 3065 3066 3067 3068 3069 3070 3071 3072 3073 3073 3074 3076
3034 3034 3035 3035 3036 3036 3036 3037 3038 3039 3040 3042 3043 3044 3045 3046 3046 3047 3048 3049 3050 3051 3052 3052 3053 3053 3054 3054 3054 3054 3054 3054 3054 3054 3054 3054 3053 3053 3053 3052 3052 3051 3051 3051 3050 3050 3049 3048 3048 3049 3050 3050 3049 3049 3048 3047 3047 3047 3048 3049 3050 3050 3050 3050 3051 3051 3052 3053 3054 3055 3056 3057 3058 3059 3060 3061 3062 3062 3064 3065 3065 3066 3067 3068 3069 3071
3034 3034 3034 3035 3035 3036 3036 3037 3038 3039 3040 3041 3042 3043 3044 3045 3046 3046 3047 3048 3049 3050 3050 3051 3051 3051 3051 3052 3052 3052 3052 3052 3052 3051 3050 3050 3049 3049 3048 3047 3046 3045 3045 3044 3044 3043 3042 3041 3041 3041 3042 3042 3042 3041 3041 3039 3038 3038 3040 3042 3043 3043 3043 3043 3044 3045 3046 3047 3048 3050 3051 3051 3053 3054 3055 3056 3056 3057 3058 3059 3059 3059 3061 3063 3065 3066
3033 3034 3034 3035 3035 3036 3036 3037 3038 3039 3040 3041 3042 3043 3044 3044 3045 3046 3046 3047 3048 3048 3048 3048 3048 3048 3049 3049 3049 3049 3048 3048 3048 3047 3047 3046 3045 3044 3043 3042 3041 3039 3038 3037 3036 3035 3035 3034 3033 3033 3033 3033 3034 3033 3032 3032 3030 3030 3031 3032 3033 3034 3035 3035 3036 3037 3038 3040 3041 3043 3044 3045 3047 3048 3049 3050 3051 3051 3052 3054 3054 3054 3056 3058 3060 3062
3033 3034 3034 3034 3035 3036 3036 3037 3038 3039 3040 3041 3041 3042 3043 3043 3044 3045 3045 3045 3045 3045 3045 3045 3045 3045 3045 3045 3045 3045 3044 3044 3043 3042 3041 3040 3039 3038 3037 3036 3035 3034 3032 3031 3030 3029 3028 3027 3026 3025 3025 3025 3025 3025 3024 3024 3024 3023 3023 3024 3024 3025 3026 3027 3028 3029 3031 3032 3034 3036 3037 3039 3040 3042 3043 3045 3047 3047 3048 3049 3050 3051 3052 3054 3055 3057
3033 3034 3034 3035 3035 3036 3036 3037 3038 3039 3040 3040 3041 3041 3042 3042 3043 3043 3043 3043 3043 3043 3043 3043 3043 3042 3042 3041 3041 3040 3040 3039 3038 3037 3037 3036 3034 3033 3032 3031 3029 3028 3027 3026 3025 3023 3022 3020 3019 3018 3017 3017 3017 3017 3017 3017 3017 3017 3016 3016 3016 3016 3016 3018 3019 3020 3022 3024 3027 3028 3030 3032 3033 3035 3037 3039 3041 3042 3043 3044 3045 3047 3048 3050 3051 3053
3033 3033 3034 3035 3035 3036 3036 3037 3038 3038 3039 3040 3040 3041 3041 3041 3042 3042 3042 3042 3041 3041 3041 3040 3040 3039 3039 3038 3037 3036 3036 3035 3034 3033 3032 3031 3030 3029 3027 3026 3024 3023 3022 3021 3019 3018 3016 3014 3012 3011 3010 3009 3008 3008 3008 3009 3009 3009 3009 3008 3008 3008 3008 3009 3011 3012 3014 3016 3018 3021 3023 3025 3026 3028 3030 3031 3034 3036 3038 3039 3040 3041 3043 3045 3047 3048
3033 3033 3034 3034 3035 3035 3036 3036 3037 3038 3038 3039 3039 3040 3040 3040 3040 3040 3040 3040 3039 3039 3038 3037 3037 3036 3035 3034 3034 3033 3032 3032 3031 3029 3028 3027 3026 3024 3023 3021 3020 3018 3017 3015 3013 3011 3009 3007 3006 3004 3003 3002 3001 3000 2999 3000 3000 3000 3000 3000 3000 3000 3000 3001 3003 3004 3006 3008 3010 3013 3015 3017 3019 3021 3022 3024 3026 3028 3031 3033 3034 3036 3038 3040 3041 3043
3033 3033 3034 3034 3035 3035 3035 3036 3036 3036 3037 3038 3038 3038 3038 3038 3038 3037 3037 3037 3036 3036 3035 3034 3033 3032 3032 3031 3030 3029 3029 3028 3027 3025 3024 3023 3021 3020 3018 3017 3015 3013 3011 3009 3006 3004 3002 3000 2999 2997 2996 2994 2993 2992 2991 2991 2991 2991 2991 2991 2991 2992 2992 2993 2994 2996 2998 3000 3002 3005 3008 3010 3012 3014 3016 3017 3020 3022 3024 3026 3028 3030 3032 3034 3036 3038